Home > Weather > Roskilde > Past weeks

Flag for Denmark Past Weather in Roskilde, Denmark — Yesterday and Last 2 Weeks

Now
68 °F

Partly sunny.


Feels Like: 68 °F
Forecast: 52 / 64 °F
Wind: 7 mph from Northwest

Location: Koebenhavn / Roskilde

Current Time: Jun 28, 2016 at 5:07:16 PM

Latest Report: Jun 28, 2016 at 4:20 PM


Visibility: N/A

Pressure: 29.98 "Hg

Humidity: 49%

Dew Point: 48 °F

Location of RoskildeLocation

Past Weather in Roskilde — Graph

°F

Roskilde Temperature Yesterday

Maximum temperature yesterday: 68 °F (at 12:50 PM)
Minimum temperature yesterday: 52 °F (at 3:20 AM)
Average temperature yesterday: 61 °F

High & Low Weather Summary for the Past Weeks

 TemperatureHumidityPressure
High81 °F (Jun 24, 4:50 PM)100% (Jun 14, 8:20 PM)30.24 "Hg (Jun 14, 8:20 PM)
Low48 °F (Jun 20, 5:20 AM)49% (Jun 28, 4:20 PM)29.47 "Hg (Jun 15, 5:20 AM)
Average62 °F82%29.87 "Hg
* Reported Jun 13 4:20 PM — Jun 28 4:20 PM, Roskilde, Weather by CustomWeather, © 2016

Note: Actual official high and low records may vary slightly from our data, if they occured in-between our weather recording intervals... More about our weather records

Advertising

Roskilde Weather History for the Previous 24 Hours

Scroll right to see more
 ConditionsComfort  
Time TempWeatherWind HumidityBarometerVisibility
4:20 PM
Tue, Jun 28
68 °FPartly sunny.7 mph49%29.98 "HgN/A
3:20 PM64 °FPartly sunny.6 mph52%30.01 "HgN/A
2:50 PM64 °FPartly sunny.5 mph60%30.01 "HgN/A
2:20 PM64 °FPartly sunny.8 mph60%30.01 "HgN/A
1:50 PM64 °FBroken clouds.12 mph64%30.01 "HgN/A
1:20 PM63 °FPartly sunny.9 mph64%30.01 "HgN/A
12:50 PM63 °FBroken clouds.7 mph64%30.01 "HgN/A
12:20 PM63 °FBroken clouds.7 mph64%30.01 "HgN/A
11:50 AM63 °FPartly sunny.2 mph64%30.01 "HgN/A
11:20 AM63 °FPartly sunny.7 mph59%30.01 "HgN/A
10:50 AM61 °FPartly sunny.6 mph68%30.01 "HgN/A
10:20 AM61 °FBroken clouds.8 mph68%30.01 "HgN/A
9:50 AM63 °FPassing clouds.6 mph68%30.01 "HgN/A
9:20 AM61 °FPartly sunny.3 mph68%30.01 "HgN/A
8:50 AM61 °FScattered clouds.6 mph72%30.01 "HgN/A
8:20 AM59 °FPassing clouds.7 mph77%30.01 "HgN/A
7:50 AM59 °FPassing clouds.5 mph82%30.01 "HgN/A
7:20 AM57 °FCool.6 mph88%30.01 "HgN/A
6:50 AM55 °FCool.5 mph94%29.98 "HgN/A
6:20 AM54 °FCool.3 mph94%29.98 "HgN/A
5:50 AM52 °FCool.3 mph100%29.98 "HgN/A
5:20 AM52 °FCool.5 mph94%29.98 "HgN/A
4:50 AM52 °FCool.6 mph94%29.98 "HgN/A
4:20 AM52 °FCool.6 mph94%29.98 "HgN/A
3:50 AM52 °FCool.6 mph94%29.98 "HgN/A
3:20 AM54 °FCool.6 mph94%29.98 "HgN/A
2:50 AM54 °FCool.7 mph100%29.98 "HgN/A
2:20 AM54 °FCool.6 mph100%29.95 "HgN/A
1:50 AM55 °FPassing clouds.7 mph94%29.95 "HgN/A
1:20 AM57 °FPassing clouds.7 mph88%29.95 "HgN/A
12:50 AM57 °FPassing clouds.9 mph94%29.95 "HgN/A
12:20 AM57 °FPassing clouds.8 mph94%29.95 "HgN/A
11:50 PM
Mon, Jun 27
59 °FPassing clouds.7 mph94%29.95 "HgN/A
11:20 PM59 °FPassing clouds.8 mph94%29.95 "HgN/A
10:50 PM61 °FBroken clouds.9 mph88%29.95 "HgN/A
10:20 PM61 °FBroken clouds.13 mph88%29.92 "HgN/A
9:50 PM61 °FLight rain. Broken clouds.12 mph94%29.92 "HgN/A
9:20 PM61 °FBroken clouds.12 mph88%29.92 "HgN/A
8:50 PM61 °FPartly sunny.12 mph88%29.92 "HgN/A
8:20 PM61 °FPartly sunny.10 mph88%29.92 "HgN/A
7:50 PM63 °FDrizzle. Broken clouds.15 mph83%29.92 "HgN/A
7:20 PM66 °FPartly sunny.15 mph68%29.92 "HgN/A
6:50 PM66 °FBroken clouds.12 mph68%29.92 "HgN/A
6:20 PM66 °FPartly sunny.14 mph68%29.92 "HgN/A
5:50 PM66 °FBroken clouds.15 mph64%29.92 "HgN/A
5:20 PM68 °FBroken clouds.15 mph60%29.92 "HgN/A
Weather by CustomWeather, © 2016

See weather overviewHow to use our weather pages